2023/12/22 00:00:00,14.8,-5.2
2023/12/22 00:10:00,14.6,-5.5
2023/12/22 00:20:00,14.6,-5.4
2023/12/22 00:30:00,14.5,-6.0
2023/12/22 00:40:00,14.2,-5.8
2023/12/22 00:50:00,14.0,-5.6
2023/12/22 01:00:00,14.0,-5.3
2023/12/22 01:10:00,14.0,-4.8
2023/12/22 01:20:00,14.1,-4.6
2023/12/22 01:30:00,14.0,-4.3
2023/12/22 01:40:00,13.8,-4.0
2023/12/22 01:50:00,13.6,-4.0
2023/12/22 02:00:00,13.5,-4.1
2023/12/22 02:10:00,13.6,-4.1
2023/12/22 02:20:00,13.4,-4.1
2023/12/22 02:30:00,14.0,-3.9
2023/12/22 02:40:00,15.2,-3.9
2023/12/22 02:50:00,15.4,-3.5
2023/12/22 03:00:00,16.7,-3.6
2023/12/22 03:10:00,17.2,-3.7
2023/12/22 03:20:00,16.9,-3.5
2023/12/22 03:30:00,16.7,-3.8
2023/12/22 03:40:00,16.6,-3.7
2023/12/22 03:50:00,16.5,-3.7
2023/12/22 04:00:00,16.7,-3.9
2023/12/22 04:10:00,16.9,-3.9
2023/12/22 04:20:00,17.4,-3.8
2023/12/22 04:30:00,18.1,-3.9
2023/12/22 04:40:00,18.2,-3.8
2023/12/22 04:50:00,18.3,-3.9
2023/12/22 05:00:00,18.1,-3.9
2023/12/22 05:10:00,18.0,-3.9
2023/12/22 05:20:00,18.1,-3.9
2023/12/22 05:30:00,18.2,-4.1
2023/12/22 05:40:00,18.1,-4.2
2023/12/22 05:50:00,18.0,-4.4
2023/12/22 06:00:00,18.0,-4.1
2023/12/22 06:10:00,18.0,-3.9
2023/12/22 06:20:00,18.0,-4.2
2023/12/22 06:30:00,18.2,-4.2
2023/12/22 06:40:00,18.4,-4.1
2023/12/22 06:50:00,18.4,-4.2
2023/12/22 07:00:00,19.5,-4.1
2023/12/22 07:10:00,20.0,-4.2
2023/12/22 07:20:00,20.8,-4.1
2023/12/22 07:30:00,21.0,-4.0
2023/12/22 07:40:00,21.5,-3.6
2023/12/22 07:50:00,21.7,-4.1
2023/12/22 08:00:00,21.7,-4.0
2023/12/22 08:10:00,22.3,-4.2
2023/12/22 08:20:00,22.7,-3.9
2023/12/22 08:30:00,22.7,-3.6
2023/12/22 08:40:00,22.9,-3.6
2023/12/22 08:50:00,23.4,-3.0
2023/12/22 09:00:00,23.7,-3.7
2023/12/22 09:10:00,24.8,-3.7
2023/12/22 09:20:00,25.4,-3.2
2023/12/22 09:30:00,25.3,-3.0
2023/12/22 09:40:00,26.0,-3.4
2023/12/22 09:50:00,26.4,-3.2
2023/12/22 10:00:00,26.2,-2.1
2023/12/22 10:10:00,26.2,-2.0
2023/12/22 10:20:00,26.4,-3.0
2023/12/22 10:30:00,26.6,-2.1
2023/12/22 10:40:00,26.7,-2.1
2023/12/22 10:50:00,26.8,-2.1
2023/12/22 11:00:00,26.7,-2.1
2023/12/22 11:10:00,26.2, 1.8
2023/12/22 11:20:00,25.9, 2.4
2023/12/22 11:30:00,25.5, 1.4
2023/12/22 11:40:00,25.5, 7.9
2023/12/22 11:50:00,25.2, 3.5
2023/12/22 12:00:00,25.1, 3.4
2023/12/22 12:10:00,24.7,-1.6
2023/12/22 12:20:00,24.7, 2.6
2023/12/22 12:30:00,24.4,-1.5
2023/12/22 12:40:00,24.8,-2.4
2023/12/22 12:50:00,26.2,-2.7
2023/12/22 13:00:00,27.1,-2.8
2023/12/22 13:10:00,28.3,-2.3
2023/12/22 13:20:00,28.6,-2.3
2023/12/22 13:30:00,29.1,-2.7
2023/12/22 13:40:00,30.3,-2.7
2023/12/22 13:50:00,31.0,-2.7
2023/12/22 14:00:00,31.5,-2.3
2023/12/22 14:10:00,31.5,-2.7
2023/12/22 14:20:00,31.5,-2.3
2023/12/22 14:30:00,31.4,-2.4
2023/12/22 14:40:00,31.4,-2.4
2023/12/22 14:50:00,31.7,-2.1
2023/12/22 15:00:00,31.6,-2.0
2023/12/22 15:10:00,31.3,-1.8
2023/12/22 15:20:00,31.1,-1.9
2023/12/22 15:30:00,30.8,-1.8
2023/12/22 15:40:00,30.8,-0.6
2023/12/22 15:50:00,30.5,-1.5
2023/12/22 16:00:00,30.3,-1.8
2023/12/22 16:10:00,30.4,-2.8
2023/12/22 16:20:00,30.1,-2.8
2023/12/22 16:30:00,29.9,-3.2
2023/12/22 16:40:00,29.6,-3.5
2023/12/22 16:50:00,29.5,-3.8
2023/12/22 17:00:00,29.5,-3.9
2023/12/22 17:10:00,29.3,-4.0
2023/12/22 17:20:00,29.2,-4.8
2023/12/22 17:30:00,29.0,-5.0
2023/12/22 17:40:00,28.7,-4.7
2023/12/22 17:50:00,28.6,-4.7
2023/12/22 18:00:00,28.6,-4.8
2023/12/22 18:10:00,28.5,-4.7
2023/12/22 18:20:00,28.4,-5.0
2023/12/22 18:30:00,28.4,-4.9
2023/12/22 18:40:00,28.2,-4.8
2023/12/22 18:50:00,28.1,-5.2
2023/12/22 19:00:00,27.9,-5.5
2023/12/22 19:10:00,27.8,-5.3
2023/12/22 19:20:00,27.6,-6.1
2023/12/22 19:30:00,27.6,-6.3
2023/12/22 19:40:00,27.6,-6.4
2023/12/22 19:50:00,27.5,-6.7
2023/12/22 20:00:00,27.4,-7.0
2023/12/22 20:10:00,27.1,-6.9
2023/12/22 20:20:00,27.0,-7.5
2023/12/22 20:30:00,27.0,-7.0
2023/12/22 20:40:00,27.0,-6.7
2023/12/22 20:50:00,26.9,-7.1
2023/12/22 21:00:00,26.9,-6.7
2023/12/22 21:10:00,26.7,-6.4
2023/12/22 21:20:00,26.6,-6.3
2023/12/22 21:30:00,26.6,-6.7
2023/12/22 21:40:00,26.4,-6.7
2023/12/22 21:50:00,26.2,-6.7
2023/12/22 22:00:00,26.1,-6.1
2023/12/22 22:10:00,26.0,-6.0
2023/12/22 22:20:00,26.0,-6.2
2023/12/22 22:30:00,25.8,-6.1
2023/12/22 22:40:00,25.6,-6.8
2023/12/22 22:50:00,25.6,-6.2
2023/12/22 23:00:00,25.5,-6.0
2023/12/22 23:10:00,25.4,-6.0
2023/12/22 23:20:00,25.3,-6.4
2023/12/22 23:30:00,25.3,-6.3
2023/12/22 23:40:00,25.2,-6.4
2023/12/22 23:50:00,25.1,-6.6
